Погода в Беркли

США     37°52′27″N   122°16′54″W
темп.,
°C
ветер,
м/с
пор.,
м/с
влажн.,
%
обл.,
%
осадки,
мм/ч
давл.,
гПа
погр.,
м
19 апреля, пн
пн1923:00+11ююз33765 0.0 101933
02:00+10ю3388100 0.0 101953
05:00+10ю3492100 0.0 101991
08:00+10ю348685 0.0 1020364
11:00+15ююз12650 0.0 1020294
14:00+16зюз3458100 0.0 1019352
17:00+15юз34625 0.0 1017294
20:00+11юз34832 0.0 1017113
20 апреля, вт
вт2023:00+10ююз359368 0.0 1017160
02:00+11ююз348578 0.0 1016380
05:00+11ююз3485100 0.0 1015385
08:00+11ю2380100 0.0 1015341
11:00+15юз22630 0.0 1014430
14:00+15зюз78650 0.0 1012546
17:00+14з56690 0.0 1010439
20:00+12ююв458218 0.0 1010154
21 апреля, ср
ср2123:00+10ю33925 0.0 101152
02:00+10ююв459429 0.0 1010166
05:00+9ююв349412 0.0 1010118
08:00+11ююв23840 0.0 1012172
11:00+16з22610 0.0 1012394
14:00+18з54521 0.0 1010376
17:00+14з57711 0.0 1010391
20:00+10зюз338951 0.0 101087
22 апреля, чт
чт2223:00+10ю23900 0.0 101144
02:00+9ю22910 0.0 101128
05:00+9ююв22910 0.0 101142
08:00+10ююв23804 0.0 1013187
11:00+16з116011 0.0 1013332
14:00+18зсз54555 0.0 1012377
17:00+17зсз55580 0.0 1011313
20:00+10з34896 0.0 1013106
23 апреля, пт
пт2323:00+11юз248245 0.0 1014349
02:00+9ююз349197 0.0 1014175
05:00+10юз578199 0.0 1013661
08:00+11ю347893 0.0 1014487
11:00+14юз34670 0.0 1015485
14:00+16зюз45591 0.0 1014521
17:00+13зюз787277 0.0 1014536
20:00+10зюз5884100 0.0 1015504